Content
SEND FEEDBACK

Daily
Averages
Monthly
Summary
United States of America

NEW MIAMI, OHIO


Home > North America > United States > Ohio
Elevation: 650 feet     Latitude: 39 25N     Longitude: 084 33W

WEATHER
 
SELECT A DAY
Number of Records: 191,337;   Date Range: 5/15/97 - 7/29/14
 
SHARE

PRINT THIS DATA

[ ← Previous Day ]
WEATHER ALMANAC - JANUARY 31, 2013
[ Next Day → ]
[ °C ]   °F
Weather ElementAverageHighLow
Temperature25.3 °F30.9 °F (1:53 am)17.1 °F (11:53 pm)
Dewpoint17.3 °F24.1 °F (7:53 pm)7 °F (11:53 pm)
Humidity72.5 %92 % (7:53 pm)54 % (2:53 pm)
Barometer29.94 in30.09 in (11:53 pm)29.69 in (1:53 am)
Wind Speed14.8 mph25.3 mph (3:04 am)
Wind Gust38 mph (2:53 am)
Weather ElementAverage
Visibility4.6 mi
Wind DirectionWNW (279.7 °)

Weather ElementTotal
Precipitation0.12 in
Heating Degree Days41 (Base 65)
Averaged from 60 records on January 31, 2013
WEATHER CONDITIONS BREAKOUT
WIND DIRECTION BREAKOUT
WEATHER BY HOUR - JANUARY 31, 2013
[ °C ]   °F
Local TimeTemperatureDewpointHumidityBarometerVisibilityWind DirectionWind SpeedGust SpeedPrecipitationEventsConditions
1:53 AM30.9 °F19.9 °F64 %29.69 in10.0 miWest (270°)23.0 mph34.5 mph0.00 inOvercast
2:53 AM30.0 °F18.0 °F61 %29.73 in10.0 miWest (270°)20.7 mph38.0 mph0.00 inOvercast
3:04 AM28.4 °F17.6 °F64 %29.73 in10.0 miWNW (290°)25.3 mph34.5 mphOvercast
3:53 AM28.0 °F17.1 °F63 %29.77 in10.0 miWest (280°)16.1 mph29.9 mph0.00 inOvercast
4:53 AM27.0 °F19.0 °F72 %29.78 in2.5 miWest (280°)13.8 mph25.3 mph0.00 inSnowLight Snow
5:02 AM26.6 °F17.6 °F69 %29.77 in6.0 miWest (270°)12.7 mph29.9 mph0.00 inSnowLight Snow
5:53 AM27.0 °F16.0 °F63 %29.80 in9.0 miWest (260°)13.8 mph29.9 mph0.00 inOvercast
6:53 AM27.0 °F16.0 °F63 %29.83 in9.0 miWest (270°)18.4 mph25.3 mph0.00 inOvercast
7:53 AM25.0 °F15.1 °F66 %29.87 in5.0 miWest (270°)20.7 mph32.2 mph0.00 inSnowLight Snow
8:53 AM25.0 °F10.9 °F55 %29.91 in10.0 miWest (260°)11.5 mph27.6 mph0.00 inOvercast
9:53 AM26.1 °F12.0 °F55 %29.94 in10.0 miWSW (250°)11.5 mph27.6 mph0.00 inOvercast
10:53 AM28.0 °F14.0 °F56 %29.95 in10.0 miWSW (250°)15.0 mph21.9 mphOvercast
11:53 AM28.0 °F14.0 °F56 %29.95 in10.0 miWest (260°)13.8 mph26.5 mphOvercast
12:53 PM28.9 °F15.1 °F56 %29.94 in10.0 miWest (260°)18.4 mph26.5 mphOvercast
1:39 PM28.4 °F19.4 °F69 %29.93 in2.5 miWSW (250°)18.4 mph26.5 mph0.00 inSnowLight Snow
1:41 PM28.4 °F19.4 °F69 %29.93 in1.8 miWest (260°)11.5 mph26.5 mph0.00 inSnowLight Snow
1:48 PM28.4 °F21.2 °F74 %29.93 in1.0 miWSW (250°)13.8 mph24.2 mph0.00 inSnowLight Snow
1:53 PM28.0 °F19.9 °F72 %29.95 in2.0 miWSW (250°)10.4 mph23.0 mph0.00 inSnowLight Snow
1:55 PM28.4 °F21.2 °F74 %29.93 in4.0 miWSW (250°)10.4 mph23.0 mph0.00 inSnowLight Snow
2:53 PM30.0 °F15.1 °F54 %29.93 in10.0 miWest (270°)19.6 mph28.8 mph0.00 inOvercast
3:53 PM30.0 °F18.0 °F61 %29.94 in10.0 miWSW (250°)11.5 mph18.4 mph0.00 inMostly Cloudy
4:53 PM30.9 °F16.0 °F54 %29.94 in10.0 miWSW (250°)16.1 mph21.9 mph0.00 inOvercast
5:53 PM30.0 °F15.1 °F54 %29.93 in10.0 miWSW (250°)12.7 mph20.7 mphOvercast
6:53 PM30.0 °F17.1 °F59 %29.94 in10.0 miWest (260°)12.7 mph19.6 mphOvercast
7:07 PM28.4 °F21.2 °F74 %29.93 in1.8 miSW (230°)10.4 mph18.4 mph0.00 inSnowLight Snow
7:14 PM28.4 °F23.0 °F80 %29.92 in1.2 miWSW (240°)9.2 mph18.4 mph0.00 inSnowLight Snow
7:17 PM28.4 °F23.0 °F80 %29.93 in2.5 miWSW (250°)8.1 mph0.00 inSnowLight Snow
7:24 PM28.4 °F21.2 °F74 %29.93 in9.0 miWest (260°)5.8 mph0.00 inSnowLight Snow
7:34 PM28.4 °F21.2 °F74 %29.94 in1.5 miWest (260°)10.4 mph0.00 inSnowLight Snow
7:40 PM26.6 °F23.0 °F86 %29.94 in0.5 miWest (270°)9.2 mph19.6 mph0.00 inFog-SnowSnow
7:53 PM26.1 °F24.1 °F92 %29.97 in0.2 miWest (260°)9.2 mph0.02 inFog-SnowHeavy Snow
8:03 PM26.6 °F23.0 °F86 %29.94 in1.5 miWest (280°)8.1 mph16.1 mph0.01 inSnowLight Snow
8:12 PM26.6 °F23.0 °F86 %29.94 in2.0 miWest (280°)8.1 mph0.01 inSnowLight Snow
8:16 PM26.6 °F21.2 °F80 %29.94 in4.0 miWest (280°)9.2 mph0.01 inSnowLight Snow
8:24 PM26.6 °F23.0 °F86 %29.94 in2.5 miWNW (290°)9.2 mph0.01 inSnowLight Snow
8:26 PM26.6 °F23.0 °F86 %29.95 in1.5 miWNW (300°)10.4 mph0.01 inSnowLight Snow
8:35 PM24.8 °F21.2 °F86 %29.94 in0.2 miWNW (300°)13.8 mph25.3 mph0.01 inFog-SnowHeavy Snow
8:45 PM24.8 °F19.4 °F80 %29.94 in2.0 miWNW (290°)15.0 mph26.5 mph0.02 inSnowLight Snow
8:53 PM25.0 °F18.0 °F75 %29.96 in9.0 miWNW (290°)16.1 mph21.9 mph0.02 inSnowLight Snow
9:03 PM24.8 °F19.4 °F80 %29.95 in2.5 miNW (310°)16.1 mph21.9 mph0.00 inSnowLight Snow
9:08 PM24.8 °F19.4 °F80 %29.95 in1.5 miNW (320°)10.4 mph21.9 mph0.00 inSnowLight Snow
9:14 PM24.8 °F19.4 °F80 %29.96 in2.0 miNW (310°)18.4 mph28.8 mph0.00 inSnowLight Snow
9:21 PM24.8 °F19.4 °F80 %29.96 in2.5 miNW (310°)16.1 mph28.8 mph0.00 inSnowLight Snow
9:29 PM24.8 °F17.6 °F74 %29.97 in4.0 miNW (310°)13.8 mph0.00 inSnowLight Snow
9:36 PM23.0 °F19.4 °F86 %29.97 in1.8 miNW (320°)13.8 mph20.7 mph0.00 inSnowLight Snow
9:46 PM23.0 °F17.6 °F80 %29.98 in3.0 miNW (310°)16.1 mph21.9 mph0.00 inSnowLight Snow
9:53 PM21.9 °F17.1 °F82 %30.01 in2.5 miWNW (300°)18.4 mph29.9 mph0.00 inSnowLight Snow
10:07 PM21.2 °F15.8 °F80 %29.99 in3.0 miWNW (290°)15.0 mph24.2 mph0.00 inSnowLight Snow
10:18 PM21.2 °F15.8 °F80 %30.00 in1.8 miNW (310°)11.5 mph0.00 inSnowLight Snow
10:31 PM19.4 °F14.0 °F80 %30.00 in3.0 miWNW (300°)16.1 mph23.0 mph0.00 inSnowLight Snow
10:50 PM19.4 °F14.0 °F80 %30.01 in1.8 miWNW (300°)19.6 mph24.2 mph0.00 inSnowLight Snow
10:53 PM19.9 °F14.0 °F78 %30.04 in1.2 miWNW (290°)17.3 mph25.3 mph0.00 inSnowLight Snow
11:04 PM19.4 °F12.2 °F74 %30.02 in2.0 miWNW (300°)18.4 mph24.2 mph0.00 inSnowLight Snow
11:13 PM19.4 °F12.2 °F74 %30.03 in4.0 miNW (310°)19.6 mph26.5 mph0.00 inSnowLight Snow
11:19 PM17.6 °F12.2 °F79 %30.04 in1.8 miNW (310°)25.3 mph32.2 mph0.00 inSnowLight Snow
11:26 PM17.6 °F10.4 °F73 %30.04 in1.5 miNW (310°)20.7 mph32.2 mph0.00 inSnowLight Snow
11:29 PM17.6 °F10.4 °F73 %30.04 in2.0 miNW (310°)20.7 mph28.8 mph0.00 inSnowLight Snow
11:34 PM17.6 °F10.4 °F73 %30.05 in4.0 miWNW (300°)13.8 mph28.8 mph0.00 inSnowLight Snow
11:48 PM17.6 °F8.6 °F68 %30.06 in6.0 miWNW (290°)23.0 mph28.8 mph0.00 inSnowLight Snow
11:53 PM17.1 °F7.0 °F65 %30.09 in3.0 miNW (310°)21.9 mph29.9 mph0.00 inSnowLight Snow
Hourly data recorded from KHAO, located miles away from New Miami, Ohio







STORIES FROM OUR PARTNERS